User: anonymous   Login
Location: Pella
(41.4080°N, 92.9160°W)
Time: 23:50:14
(UTC-05:00)
Language:

Iridium 91 - Orbit

View from above orbital plane
View from above orbital plane
View from above satellite
View from above satellite

Ground track
Ground track

The orbit data is extracted from the following two-line orbital elements,

1 27372U 02005A   14303.46709903  .00000377  00000-0  12738-3 0  5499
2 27372 086.3964 329.2841 0003214 120.2823 355.7906 14.34219379673921
Epoch (UTC): 30 October 2014 11:12:37
Eccentricity: 0.0003214
inclination: 86.3964°
perigee height: 775 km
apogee height: 780 km
right ascension of ascending node: 329.2841°
argument of perigee: 120.2823°
revolutions per day: 14.34219379
mean anomaly at epoch: 355.7906°
orbit number at epoch: 67392

The dashed part of the orbit path shows where the satellite is in the earth's shadow,  

DLR